Weather History for Fort Myers, FL

Change the Weather History Date:

Friday, January 4, 2013

  Actual Average Record
Temperature  
Mean Temperature 68 °F 64 °F  
Max Temperature 72 °F 75 °F 87 °F (1947)
Min Temperature 63 °F 54 °F 30 °F (1928)
Degree Days  
Heating Degree Days 0 4  
Month to date heating degree days 0 16  
Since 1 July heating degree days 58 109  
Cooling Degree Days 3 3  
Month to date cooling degree days 18 12  
Year to date cooling degree days 18 12  
Growing Degree Days 18 (Base 50)    
Moisture  
Dew Point 65 °F    
Average Humidity 89    
Maximum Humidity 97    
Minimum Humidity 79    
Precipitation  
Precipitation 0.15 in 0.06 in 1.24 in (1903)
Month to date precipitation 0.15 0.24  
Year to date precipitation 0.15 0.24  
Sea Level Pressure  
Sea Level Pressure 30.18 in    
Wind  
Wind Speed 7 mph (NE)    
Max Wind Speed 13 mph    
Max Gust Speed 15 mph    
Visibility 9 miles    
Events Rain    
T = Trace of Precipitation, MM = Missing Value Source: NWS Daily Summary

Daily Weather History Graph

Daily Weather History Graph

Search for Another Location

Airport:

Trip Planner

Search our weather history database for the weather conditions in past years. The results will help you decide how hot, cold, wet, or windy it might be!

Date:

Astronomy

Jan. 04, 2013 Rise Set
Actual Time 7:16 AM EST 5:48 PM EST
Civil Twilight 6:51 AM EST 6:13 PM EST
Nautical Twilight 6:22 AM EST 6:42 PM EST
Astronomical Twilight 5:54 AM EST 7:10 PM EST
Moon No Moon Rise 11:41 AM EST (1/4)
Length of Visible Light 11h 22m
Length of Day
10h 32m
Waning Gibbous, 55% of the Moon is Illuminated
Jan 4
Waning Gibbous
Jan 4
Last Quarter
Jan 11
New
Jan 18
First Quarter
Jan 26
Full

Hourly Weather History & Observations

Time (EST) Temp. Dew Point Humidity Pressure Visibility Wind Dir Wind Speed Gust Speed Precip Events Conditions
12:53 AM 70.0 °F 68.0 °F 93% 30.12 in 10.0 mi East 3.5 mph - N/A   Overcast
1:01 AM 71.6 °F 68.0 °F 88% 30.11 in 10.0 mi ESE 3.5 mph - N/A   Overcast
1:53 AM 71.1 °F 68.0 °F 90% 30.12 in 10.0 mi Calm Calm - N/A   Overcast
2:53 AM 70.0 °F 66.0 °F 87% 30.11 in 10.0 mi ESE 5.8 mph - N/A   Overcast
3:53 AM 70.0 °F 66.0 °F 87% 30.12 in 10.0 mi East 3.5 mph - N/A   Overcast
4:53 AM 69.1 °F 66.0 °F 90% 30.13 in 10.0 mi NNE 4.6 mph - N/A   Overcast
5:53 AM 66.0 °F 64.0 °F 93% 30.14 in 8.0 mi NE 8.1 mph - 0.00 in   Overcast
6:41 AM 64.4 °F 64.4 °F 100% 30.15 in 1.8 mi NE 8.1 mph - 0.05 in Rain Heavy Rain
6:50 AM 64.4 °F 64.4 °F 100% 30.15 in 3.0 mi NNE 6.9 mph - 0.08 in Rain Light Rain
6:53 AM 64.9 °F 64.0 °F 97% 30.16 in 3.0 mi NNE 5.8 mph - 0.08 in Rain Light Rain
7:51 AM 64.4 °F 62.6 °F 94% 30.18 in 1.8 mi NE 8.1 mph - 0.01 in Rain Light Rain
8:53 AM 64.0 °F 63.0 °F 96% 30.22 in 10.0 mi NE 9.2 mph - 0.05 in   Overcast
9:53 AM 66.0 °F 64.0 °F 93% 30.22 in 10.0 mi ENE 9.2 mph - N/A   Overcast
10:53 AM 66.9 °F 64.0 °F 90% 30.23 in 10.0 mi NE 5.8 mph - N/A   Overcast
11:53 AM 69.1 °F 64.9 °F 87% 30.20 in 10.0 mi East 5.8 mph - N/A   Overcast
12:53 PM 70.0 °F 66.0 °F 87% 30.18 in 10.0 mi Variable 4.6 mph - N/A   Overcast
1:53 PM 71.1 °F 66.0 °F 84% 30.17 in 10.0 mi NE 3.5 mph - N/A   Overcast
2:53 PM 72.0 °F 66.0 °F 81% 30.16 in 10.0 mi NE 5.8 mph - N/A   Overcast
3:43 PM 71.6 °F 66.2 °F 83% 30.15 in 10.0 mi NNE 6.9 mph - N/A   Overcast
3:53 PM 71.1 °F 66.0 °F 84% 30.16 in 10.0 mi NE 5.8 mph - N/A   Overcast
4:53 PM 71.1 °F 64.9 °F 81% 30.17 in 10.0 mi North 9.2 mph - N/A   Mostly Cloudy
5:53 PM 69.1 °F 64.0 °F 84% 30.19 in 10.0 mi NNE 8.1 mph - N/A   Mostly Cloudy
6:00 PM 68.0 °F 64.4 °F 88% 30.19 in 10.0 mi NNE 8.1 mph - N/A   Scattered Clouds
6:19 PM 68.0 °F 64.4 °F 88% 30.19 in 10.0 mi NNE 9.2 mph - N/A   Mostly Cloudy
6:39 PM 68.0 °F 64.4 °F 88% 30.20 in 10.0 mi NNE 8.1 mph - N/A   Overcast
6:53 PM 68.0 °F 64.0 °F 87% 30.22 in 10.0 mi North 10.4 mph - N/A   Overcast
7:53 PM 68.0 °F 63.0 °F 84% 30.24 in 10.0 mi NNE 10.4 mph - N/A   Overcast
8:53 PM 66.0 °F 62.1 °F 87% 30.25 in 10.0 mi NNE 9.2 mph - N/A   Overcast
9:53 PM 64.0 °F 62.1 °F 93% 30.26 in 10.0 mi NE 10.4 mph - N/A   Overcast
10:53 PM 63.0 °F 61.0 °F 93% 30.24 in 10.0 mi ENE 8.1 mph - N/A   Overcast
11:53 PM 63.0 °F 61.0 °F 93% 30.24 in 8.0 mi ENE 6.9 mph - N/A   Overcast